Time,TemperatureF,DewpointF,PressureIn,WindDirection,WindDirectionDegrees,WindSpeedMPH,WindSpeedGustMPH,Humidity,HourlyPrecipIn,Conditions,Clouds,dailyrainin,SoftwareType,DateUTC
2013-09-21 00:13:00,48.0,43.0,29.94,North,360,0.0,-999.0,84,-99.99,,,-99.99,,2013-09-21 05:13:00,
2013-09-21 00:23:00,47.0,42.0,29.94,North,360,0.0,-999.0,84,-99.99,,,-99.99,,2013-09-21 05:23:00,
2013-09-21 00:53:00,46.0,41.0,29.95,North,360,0.0,-999.0,84,-99.99,,,-99.99,,2013-09-21 05:53:00,
2013-09-21 01:12:00,46.0,41.0,29.95,North,360,0.0,-999.0,84,-99.99,,,-99.99,,2013-09-21 06:12:00,
2013-09-21 01:22:00,46.0,41.0,29.95,North,360,0.0,-999.0,84,-99.99,,,-99.99,,2013-09-21 06:22:00,
2013-09-21 01:42:00,45.0,40.0,29.95,North,360,1.0,-999.0,84,-99.99,,,-99.99,,2013-09-21 06:42:00,
2013-09-21 01:53:00,45.0,40.0,29.95,North,360,0.0,-999.0,84,-99.99,,,-99.99,,2013-09-21 06:53:00,
2013-09-21 02:11:00,45.0,40.0,29.95,North,360,1.0,-999.0,84,-99.99,,,-99.99,,2013-09-21 07:11:00,
2013-09-21 02:21:00,45.0,41.0,29.96,North,360,2.0,-999.0,85,-99.99,,,-99.99,,2013-09-21 07:21:00,
2013-09-21 02:52:00,44.0,40.0,29.96,North,360,1.0,-999.0,86,-99.99,,,-99.99,,2013-09-21 07:52:00,
2013-09-21 03:13:00,44.0,40.0,29.96,North,360,1.0,-999.0,87,-99.99,,,-99.99,,2013-09-21 08:13:00,
2013-09-21 03:22:00,43.0,39.0,29.96,North,360,1.0,-999.0,87,-99.99,,,-99.99,,2013-09-21 08:22:00,
2013-09-21 03:52:00,43.0,40.0,29.96,North,360,0.0,-999.0,88,-99.99,,,-99.99,,2013-09-21 08:52:00,
2013-09-21 04:22:00,42.0,39.0,29.96,North,360,0.0,-999.0,88,-99.99,,,-99.99,,2013-09-21 09:22:00,
2013-09-21 04:33:00,42.0,39.0,29.96,North,360,0.0,-999.0,88,-99.99,,,-99.99,,2013-09-21 09:33:00,
2013-09-21 04:54:00,42.0,39.0,29.96,North,360,0.0,-999.0,89,-99.99,,,-99.99,,2013-09-21 09:54:00,
2013-09-21 05:12:00,42.0,39.0,29.97,North,360,1.0,-999.0,89,-99.99,,,-99.99,,2013-09-21 10:12:00,
2013-09-21 05:23:00,41.0,38.0,29.96,North,360,0.0,-999.0,90,-99.99,,,-99.99,,2013-09-21 10:23:00,
2013-09-21 05:42:00,41.0,39.0,29.97,North,360,0.0,-999.0,91,-99.99,,,-99.99,,2013-09-21 10:42:00,
2013-09-21 05:52:00,41.0,39.0,29.97,North,360,0.0,-999.0,91,-99.99,,,-99.99,,2013-09-21 10:52:00,
2013-09-21 06:11:00,41.0,39.0,29.97,North,360,0.0,-999.0,92,-99.99,,,-99.99,,2013-09-21 11:11:00,
2013-09-21 06:23:00,41.0,39.0,29.97,North,360,0.0,-999.0,92,-99.99,,,-99.99,,2013-09-21 11:23:00,
2013-09-21 06:52:00,41.0,39.0,29.97,North,360,0.0,-999.0,92,-99.99,,,-99.99,,2013-09-21 11:52:00,
2013-09-21 07:21:00,41.0,39.0,29.98,North,360,0.0,-999.0,93,-99.99,,,-99.99,,2013-09-21 12:21:00,
2013-09-21 07:52:00,40.0,38.0,29.98,North,360,0.0,-999.0,92,-99.99,,,-99.99,,2013-09-21 12:52:00,
2013-09-21 08:11:00,40.0,38.0,29.98,North,360,0.0,-999.0,93,-99.99,,,-99.99,,2013-09-21 13:11:00,
2013-09-21 08:21:00,42.0,40.0,29.98,North,360,0.0,-999.0,93,-99.99,,,-99.99,,2013-09-21 13:21:00,
2013-09-21 08:42:00,44.0,42.0,29.99,North,360,0.0,-999.0,93,-99.99,,,-99.99,,2013-09-21 13:42:00,
2013-09-21 09:11:00,48.0,44.0,29.99,North,360,0.0,-999.0,86,-99.99,,,-99.99,,2013-09-21 14:11:00,
2013-09-21 09:22:00,50.0,44.0,29.99,North,360,0.0,-999.0,81,-99.99,,,-99.99,,2013-09-21 14:22:00,
2013-09-21 09:42:00,52.0,46.0,30.00,North,360,0.0,-999.0,81,-99.99,,,-99.99,,2013-09-21 14:42:00,
2013-09-21 09:52:00,53.0,45.0,30.00,North,360,0.0,-999.0,74,-99.99,,,-99.99,,2013-09-21 14:52:00,
2013-09-21 10:22:00,54.0,44.0,30.00,NW,310,0.0,-999.0,70,-99.99,,,-99.99,,2013-09-21 15:22:00,
2013-09-21 10:55:00,56.0,44.0,30.01,NW,318,1.0,-999.0,64,-99.99,,,-99.99,,2013-09-21 15:55:00,
2013-09-21 11:24:00,55.0,44.0,30.00,NW,321,0.0,-999.0,66,-99.99,,,-99.99,,2013-09-21 16:24:00,
2013-09-21 11:54:00,57.0,45.0,29.99,NW,321,0.0,-999.0,64,-99.99,,,-99.99,,2013-09-21 16:54:00,
2013-09-21 12:23:00,59.0,45.0,29.99,NW,308,1.0,-999.0,59,-99.99,,,-99.99,,2013-09-21 17:23:00,
2013-09-21 12:52:00,58.0,45.0,29.98,NW,325,1.0,-999.0,62,-99.99,,,-99.99,,2013-09-21 17:52:00,
2013-09-21 13:12:00,60.0,46.0,29.98,NNW,327,1.0,-999.0,59,-99.99,,,-99.99,,2013-09-21 18:12:00,
2013-09-21 13:22:00,61.0,46.0,29.97,NNW,327,0.0,-999.0,57,-99.99,,,-99.99,,2013-09-21 18:22:00,
2013-09-21 13:52:00,64.0,47.0,29.96,ENE,74,1.0,-999.0,54,-99.99,,,-99.99,,2013-09-21 18:52:00,
2013-09-21 14:11:00,63.0,48.0,29.95,East,92,1.0,-999.0,58,-99.99,,,-99.99,,2013-09-21 19:11:00,
2013-09-21 14:21:00,62.0,46.0,29.94,East,92,1.0,-999.0,55,-99.99,,,-99.99,,2013-09-21 19:21:00,
2013-09-21 14:52:00,64.0,46.0,29.93,East,95,0.0,-999.0,52,-99.99,,,-99.99,,2013-09-21 19:52:00,
2013-09-21 15:12:00,64.0,47.0,29.92,East,95,1.0,-999.0,55,-99.99,,,-99.99,,2013-09-21 20:12:00,
2013-09-21 15:22:00,65.0,47.0,29.92,East,101,3.0,-999.0,53,-99.99,,,-99.99,,2013-09-21 20:22:00,
2013-09-21 15:52:00,65.0,47.0,29.90,East,101,0.0,-999.0,52,-99.99,,,-99.99,,2013-09-21 20:52:00,
2013-09-21 16:12:00,65.0,48.0,29.90,East,99,0.0,-999.0,54,-99.99,,,-99.99,,2013-09-21 21:12:00,
2013-09-21 16:22:00,66.0,47.0,29.89,East,101,1.0,-999.0,51,-99.99,,,-99.99,,2013-09-21 21:22:00,
2013-09-21 16:44:00,65.0,46.0,29.88,ESE,103,2.0,-999.0,51,-99.99,,,-99.99,,2013-09-21 21:44:00,
2013-09-21 16:54:00,67.0,47.0,29.88,ESE,103,1.0,-999.0,48,-99.99,,,-99.99,,2013-09-21 21:54:00,
2013-09-21 17:23:00,68.0,47.0,29.87,ESE,103,1.0,-999.0,47,-99.99,,,-99.99,,2013-09-21 22:23:00,
2013-09-21 17:53:00,65.0,47.0,29.86,ESE,103,1.0,-999.0,52,-99.99,,,-99.99,,2013-09-21 22:53:00,
2013-09-21 18:13:00,64.0,46.0,29.86,ESE,103,1.0,-999.0,52,-99.99,,,-99.99,,2013-09-21 23:13:00,
2013-09-21 18:23:00,64.0,45.0,29.86,ESE,103,1.0,-999.0,51,-99.99,,,-99.99,,2013-09-21 23:23:00,
2013-09-21 18:53:00,63.0,46.0,29.85,ESE,103,1.0,-999.0,53,-99.99,,,-99.99,,2013-09-21 23:53:00,
2013-09-21 19:12:00,63.0,47.0,29.85,ESE,103,0.0,-999.0,56,-99.99,,,-99.99,,2013-09-22 00:12:00,
2013-09-21 19:22:00,62.0,47.0,29.85,ESE,103,0.0,-999.0,58,-99.99,,,-99.99,,2013-09-22 00:22:00,
2013-09-21 19:32:00,62.0,47.0,29.85,ESE,103,0.0,-999.0,58,-99.99,,,-99.99,,2013-09-22 00:32:00,
2013-09-21 19:43:00,62.0,47.0,29.85,ESE,103,0.0,-999.0,58,-99.99,,,-99.99,,2013-09-22 00:43:00,
2013-09-21 19:52:00,60.0,47.0,29.85,ESE,103,0.0,-999.0,62,-99.99,,,-99.99,,2013-09-22 00:52:00,
2013-09-21 20:12:00,58.0,47.0,29.85,ESE,103,0.0,-999.0,66,-99.99,,,-99.99,,2013-09-22 01:12:00,
2013-09-21 20:21:00,57.0,47.0,29.85,ESE,103,0.0,-999.0,68,-99.99,,,-99.99,,2013-09-22 01:21:00,
2013-09-21 20:42:00,56.0,47.0,29.85,ESE,103,0.0,-999.0,71,-99.99,,,-99.99,,2013-09-22 01:42:00,
2013-09-21 20:52:00,55.0,47.0,29.85,ESE,103,0.0,-999.0,73,-99.99,,,-99.99,,2013-09-22 01:52:00,
2013-09-21 21:12:00,54.0,47.0,29.86,ESE,103,0.0,-999.0,76,-99.99,,,-99.99,,2013-09-22 02:12:00,
2013-09-21 21:22:00,54.0,47.0,29.86,ESE,103,0.0,-999.0,77,-99.99,,,-99.99,,2013-09-22 02:22:00,
2013-09-21 21:42:00,53.0,46.0,29.86,ESE,103,0.0,-999.0,78,-99.99,,,-99.99,,2013-09-22 02:42:00,
2013-09-21 21:52:00,53.0,47.0,29.86,ESE,103,1.0,-999.0,79,-99.99,,,-99.99,,2013-09-22 02:52:00,
2013-09-21 22:12:00,53.0,47.0,29.86,ESE,103,0.0,-999.0,79,-99.99,,,-99.99,,2013-09-22 03:12:00,
2013-09-21 22:22:00,52.0,46.0,29.86,ESE,103,1.0,-999.0,80,-99.99,,,-99.99,,2013-09-22 03:22:00,
2013-09-21 22:54:00,52.0,47.0,29.86,ESE,103,2.0,-999.0,82,-99.99,,,-99.99,,2013-09-22 03:54:00,
2013-09-21 23:02:00,-999.0,-99.9,29.86,ESE,103,0.0,-999.0,-999,-99.99,,,-99.99,,2013-09-22 04:02:00,
2013-09-21 23:14:00,51.0,46.0,29.86,ESE,103,0.0,-999.0,82,-99.99,,,-99.99,,2013-09-22 04:14:00,
2013-09-21 23:23:00,51.0,46.0,29.86,ESE,103,1.0,-999.0,83,-99.99,,,-99.99,,2013-09-22 04:23:00,
2013-09-21 23:54:00,50.0,45.0,29.86,ESE,103,2.0,-999.0,84,-99.99,,,-99.99,,2013-09-22 04:54:00,